x

Ilm2 - 5 Miles Se Of Wrightsville Beach, Nc (41038) Weather Station

11:00 - Fri 18th Apr 2014 All times are EDT. -4 hours from GMT.

  • Wind
    29mph, 36mph gusts
  • Sea Temp 59°f
  • Aire Temp 56°f
  • Sea Pressure 1020.3mb
  • Ilm2 - 5 Miles Se Of Wrightsville Beach, Nc
  • Ilm2 - 5 Miles Se Of Wrightsville Beach, Nc

More Historic Weather Station data

Upgrade to MSW Pro to gain access to the past 30 days of data for over 8000 Wavebouys and Weather Stations around the globe.

Join Pro

Comparision Forecast

View Surf forecast
   
vie 04/18 11:00 29 36 mph 1020.3mb 59f 56f
10:00 27 29 mph 1022.1mb 59f 56f
9:00 18 25 mph 1023mb 59f 55f
8:00 25 27 mph 1021.5mb 59f 57f
7:00 16 20 mph 1022.2mb 59f 59f
6:00 16 18 mph 1022.7mb 59f 59f
5:00 20 22 mph 1022.7mb 59f 59f
4:00 18 20 mph 1023.7mb 59f 59f
3:00 18 20 mph 1024.6mb 59f 59f
2:00 13 16 mph 1025.7mb 59f 57f
1:00 13 18 mph 1026.6mb 59f 56f
12:00 16 18 mph 1027mb 59f 55f
11:00 11 16 mph 1027.4mb 59f 54f
10:00 13 18 mph 1027.6mb 59f 49f
9:00 18 22 mph 1027.2mb 59f 49f
8:00 18 20 mph 1027.3mb 59f 47f
7:00 18 20 mph 1027.6mb 59f 49f
6:00 20 22 mph 1026.9mb 59f 48f
5:00 18 22 mph 1027.6mb 59f 49f
4:00 20 25 mph 1027.3mb 59f 50f
3:00 20 22 mph 1028.1mb 59f 51f
2:00 22 27 mph 1027.8mb 60f 52f
1:00 25 29 mph 1028.6mb 60f 54f
12:00 20 25 mph 1029.2mb 60f 55f
jue 04/17 11:00 20 25 mph 1029.7mb 60f 57f
10:00 20 25 mph 1029mb 60f 58f
9:00 22 27 mph 1028.9mb 60f 59f
8:00 20 25 mph 1028.8mb 60f 60f
7:00 25 29 mph 1028mb 60f 60f
6:00 18 22 mph 1028.7mb 60f 60f
5:00 20 25 mph 1029.1mb 60f 60f
4:00 18 20 mph 1029.7mb 60f 60f
3:00 18 22 mph 1030.5mb 60f 60f
2:00 16 20 mph 1030.8mb 60f 59f
1:00 18 22 mph 1031.1mb 60f 57f
12:00 20 22 mph 1031.8mb 60f 54f
11:00 20 22 mph 1031.6mb 60f 52f
10:00 20 25 mph 1031mb 60f 51f
9:00 22 25 mph 1030.4mb 60f 50f
8:00 27 31 mph 1029.3mb 60f 47f
7:00 27 34 mph 1028.9mb 60f 47f
6:00 27 31 mph 1028.8mb 60f 47f
5:00 27 29 mph 1028.6mb 60f 48f
4:00 27 29 mph 1029.1mb 60f 47f
3:00 22 25 mph 1029.2mb 60f 48f
2:00 22 27 mph 1029.5mb 60f 48f
1:00 22 27 mph 1029.2mb 60f 49f
12:00 27 34 mph 1029.3mb 60f 50f
mié 04/16 11:00 25 29 mph 1028.8mb 60f 51f
10:00 25 29 mph 1028.8mb 60f 51f
9:00 22 27 mph 1028.8mb 60f 52f
8:00 20 25 mph 1027.9mb 60f 53f
7:00 20 25 mph 1027.4mb 60f 53f
6:00 16 20 mph 1027.2mb 60f 53f
5:00 18 22 mph 1027mb 60f 52f
4:00 16 18 mph 1026.7mb 60f 51f
3:00 20 22 mph 1026.9mb 60f 50f
2:00 18 25 mph 1027.1mb 60f 49f
1:00 18 20 mph 1026.9mb 60f 47f
12:00 22 27 mph 1027.3mb 60f 46f
11:00 22 29 mph 1026.6mb 60f 46f
10:00 27 34 mph 1025.6mb 60f 44f
9:00 27 31 mph 1024.3mb 60f 43f
8:00 31 40 mph 1022.9mb 60f 43f
7:00 31 36 mph 1022.5mb 60f 43f
6:00 27 34 mph 1020.6mb 60f 45f
5:00 29 36 mph 1018.9mb 60f 47f
4:00 29 36 mph 1017.9mb 60f 48f
3:00 31 36 mph 1015.6mb 60f 49f
2:00 25 31 mph 1014.6mb 61f 49f
1:00 31 38 mph 1012mb 61f 51f
12:00 31 36 mph 1011.2mb 61f 51f
mar 04/15 11:00 27 36 mph 1009.4mb 61f 53f
10:00 31 38 mph 1006.5mb 62f 56f
9:00 22 25 mph 1005mb 62f 66f
8:00 25 27 mph 1004.6mb 62f 66f
7:00 20 25 mph 1004.4mb 62f 65f
6:00 20 27 mph 1005.2mb 62f 65f
5:00 20 25 mph 1005.6mb 62f 65f
4:00 18 22 mph 1006.7mb 62f 65f
3:00 18 20 mph 1007.7mb 62f 65f
2:00 11 16 mph 1007.9mb 62f 65f
1:00 18
mph
1008.5mb 62f 65f
12:00 18 22 mph 1008.9mb 62f 65f
11:00 16 18 mph 1009.1mb 62f 65f
10:00 16 20 mph 1008.7mb 63f 66f
9:00 18 20 mph 1009mb 63f 66f
8:00 22 27 mph 1008.4mb 63f 67f
7:00 20 25 mph 1008.9mb 64f 67f
6:00 20 25 mph 1009.1mb 64f 67f
5:00 22 27 mph 1009.2mb 64f 68f